Tracking 25963 objects as of 12-Aug-2022
HD Live streaming from Space Station
objects crossing your sky now

COSMOS 2506 DEB

Track COSMOS 2506 DEB now!
10-day predictions


NORAD ID: 47212
Int'l Code: 1994-074CY
Perigee: 708.3 km
Apogee: 720.7 km
Inclination: 98.3 °
Period: 98.9 minutes
Semi major axis: 7085 km
RCS: Unknown
Launch date: November 4, 1994
Source: Commonwealth of Independent States (former USSR) (CIS)
Launch site: TYURATAM MISSILE AND SPACE COMPLEX (TTMTR)

Note: This is SATELLITE DEBRIS
aabbcc
Your satellite tracking list
Your tracking list is empty




NASA's NSSDC Master Catalog

Two Line Element Set (TLE):
1 47212U 15029C   22223.40901211  .00001155  00000-0  27498-3 0  9997
2 47212  98.2831 283.8901 0008771 215.1376 144.9243 14.55616921 92040
Source of the keplerian elements: AFSPC